Content
SEND FEEDBACK

Daily
Averages
Monthly
Summary
Mexico

CANCUN, QUINTANA ROO


Home > North America > Mexico > Quintana Roo
Elevation: 9 meters     Latitude: 21 09N     Longitude: 086 49W

WEATHER
 
SELECT A DAY
Number of Records: 163,905;   Date Range: 1/1/95 - 8/10/14
 
SHARE

PRINT THIS DATA

[ ← Previous Day ]
WEATHER ALMANAC - 16 DECEMBER, 2013
[ Next Day → ]
[ °F ]   °C
Weather ElementAverageHighLow
Temperature22.9 °C24 °C (9:45 am)22 °C (1:44 am)
Dewpoint22.1 °C23 °C (12:44 pm)22 °C (1:44 am)
Humidity95.7 %100 % (1:44 am)89 % (9:45 am)
Barometer1018.3 hPa1020 hPa (9:46 pm)1015.2 hPa (2:46 am)
Wind Speed7.7 km/h18.5 km/h (10:47 pm)
Weather ElementAverage
Visibility7.6 km
Wind DirectionSSW (218.8 °)

Weather ElementTotal
Precipitation---
Cooling Degree Days4.7 (Base 18.3)
Growing Degree Days13 (Base 10)
Averaged from 24 records on 16 December, 2013
WEATHER CONDITIONS BREAKOUT
WIND DIRECTION BREAKOUT
WEATHER BY HOUR - 16 DECEMBER, 2013
[ °F ]   °C
Local TimeTemperatureDewpointHumidityBarometerVisibilityWind DirectionWind SpeedGust SpeedPrecipitationEventsConditions
1:44 AM22 °C22 °C100 %1017.3 hPa6.4 kmCalmRainLight Rain
2:46 AM22 °C22 °C100 %1015.2 hPa8 kmCalmRainLight Rain
3:45 AM22 °C22 °C100 %1017.3 hPa9.7 kmCalmRainLight Rain
4:44 AM22 °C22 °C100 %1017.3 hPa9.7 kmCalmOvercast
5:45 AM23 °C22 °C94 %1016.3 hPa9.7 kmNNW (340°)16.7 km/hMostly Cloudy
6:44 AM23 °C22 °C94 %1018.6 hPa9.7 kmNorth (350°)9.3 km/hOvercast
7:44 AM23 °C22 °C94 %1019 hPa9.7 kmNNW (340°)7.4 km/hOvercast
8:48 AM23 °C22 °C94 %1019 hPa9.7 kmNorth (350°)7.4 km/hOvercast
9:45 AM24 °C22 °C89 %1019.6 hPa9.7 kmNorth (360°)11.1 km/hOvercast
10:48 AM24 °C22 °C89 %1019.6 hPa9.7 kmNorth (10°)9.3 km/hOvercast
11:50 AM24 °C22 °C89 %1017.9 hPa8 kmNorth (350°)7.4 km/hRainLight Rain
12:44 PM24 °C23 °C94 %1017.6 hPa9.7 kmNNW (340°)11.1 km/hRainLight Rain
1:47 PM24 °C22 °C89 %1017.6 hPa9.7 kmNNE (30°)13 km/hOvercast
2:49 PM23 °C22 °C94 %1016.9 hPa9.7 kmNorth (10°)9.3 km/hOvercast
3:46 PM23 °C22 °C94 %1017.6 hPa8 kmNorth (350°)7.4 km/hOvercast
4:07 PM23 °C22 °C94 %1017.9 hPa3.2 kmNNW (330°)5.6 km/hRainRain
4:40 PM23 °C23 °C100 %1018.3 hPa4.8 kmNNW (340°)5.6 km/hRainLight Rain
5:45 PM22 °C22 °C100 %1017.9 hPa4.8 kmNorth (10°)11.1 km/hRainRain
6:43 PM22 °C22 °C100 %1019 hPa4.8 kmNorth (350°)5.6 km/hRainLight Rain
7:41 PM23 °C22 °C94 %1019.6 hPa4.8 kmNorth (360°)11.1 km/hRainLight Rain
8:41 PM22 °C22 °C100 %1019 hPa4.8 kmNorth (360°)5.6 km/hRainLight Rain
9:46 PM23 °C22 °C94 %1020 hPa4.8 kmSSE (150°)5.6 km/hRainRain
10:47 PM22 °C22 °C100 %1019.6 hPa4.8 kmSouth (190°)18.5 km/hRainRain
11:48 PM23 °C23 °C100 %1018.3 hPa8 kmNNW (330°)7.4 km/hRainLight Rain
Hourly data recorded from MMUN, located 0 kilometers away from Cancun, Quintana Roo







STORIES FROM OUR PARTNERS